Location: Bonny Doon Airfield
(37.0704°N, 122.1252°W)
Time: 08:51:24
(UTC-08:00)

Tiangong 2 - Pass Details

Date: 14 October 2017
Orbit: 387 x 389 km, 42.8° (Epoch: 18 December)

Event Time Altitude Azimuth Distance (km) Brightness Sun altitude
Exits shadow 06:36:18 - 302° (WNW) 1,463 3.5 -8.6°
Reaches altitude 10° 06:36:25 10° 303° (WNW) 1,419 3.4 -8.6°
Maximum altitude 06:39:18 30° 7° (N) 731 2.5 -8.0°
Drops below altitude 10° 06:42:11 10° 71° (ENE) 1,421 5.2 -7.5°
Sets 06:44:25 0° 83° (E) 2,276 7.0 -7.0°
